KI5MQY-13 Weather Reports


Display with metric or nautical units.
time (UTC)temp
F
wind
direction
speed
MPH
gust
MPH
rain 1hr
in
rain 24hr
in
rain mn
in
humidity
%
barometer
mb
20260505224925 88 230 10.0 10.0 0.00 0.00 0.00 54 1003.0
20260505221924 89 230 10.0 10.0 0.00 0.00 0.00 54 1003.0
20260505214924 89 230 10.0 21.0 0.00 0.00 0.00 55 1003.0
20260505211924 90 190 7.0 12.0 0.00 0.00 0.00 57 1003.0
20260505204924 89 230 6.0 12.0 0.00 0.00 0.00 58 1003.0
20260505194924 88 230 6.0 12.0 0.00 0.00 0.00 58 1003.0
20260505181924 83 200 20.0 30.0 0.00 0.00 0.00 67 1004.0
20260505174924 82 200 20.0 30.0 0.00 0.00 0.00 68 1004.0
20260505171924 81 200 20.0 30.0 0.00 0.00 0.00 70 1005.0
20260505164924 80 200 20.0 30.0 0.00 0.00 0.00 71 1004.0
20260505151924 76 200 13.0 25.0 0.00 0.00 0.00 76 1004.0
20260505124924 71 190 18.0 28.0 0.00 0.00 0.00 83 1004.0
20260505114924 71 190 18.0 28.0 0.00 0.00 0.00 83 1004.0
20260505111924 71 190 18.0 28.0 0.00 0.00 0.00 83 1003.0
20260505094924 71 190 21.0 30.0 0.00 0.00 0.00 83 1004.0
20260505091924 71 190 21.0 30.0 0.00 0.00 0.00 83 1004.0
20260505084924 71 190 21.0 30.0 0.00 0.00 0.00 83 1004.0
20260505081924 71 190 21.0 30.0 0.00 0.00 0.00 82 1004.0
20260505074925 72 180 17.0 28.0 0.00 0.00 0.00 81 1004.0
20260505071924 72 180 17.0 28.0 0.00 0.00 0.00 79 1005.0
20260505064924 72 180 17.0 28.0 0.00 0.00 0.00 78 1005.0
20260505061924 73 180 15.0 15.0 0.00 0.00 0.00 77 1005.0
20260505054924 73 180 15.0 15.0 0.00 0.00 0.00 76 1005.0
20260505051924 75 170 17.0 17.0 0.00 0.00 0.00 74 1005.0
20260505031924 75 180 17.0 17.0 0.00 0.00 0.00 70 1006.0
20260505024924 75 180 17.0 17.0 0.00 0.00 0.00 69 1005.0
20260505021924 75 180 17.0 17.0 0.00 0.00 0.00 68 1006.0
20260505014925 76 190 17.0 28.0 0.00 0.00 0.00 67 1006.0
20260505004925 78 200 24.0 37.0 0.00 0.00 0.00 63 1006.0
20260505001924 79 200 24.0 37.0 0.00 0.00 0.00 62 1006.0
20260504234924 80 200 24.0 37.0 0.00 0.00 0.00 60 1006.0
20260504231924 81 200 24.0 37.0 0.00 0.00 0.00 58 1006.0